Time,TemperatureF,DewpointF,PressureIn,WindDirection,WindDirectionDegrees,WindSpeedMPH,WindSpeedGustMPH,Humidity,HourlyPrecipIn,Conditions,Clouds,dailyrainin,SoftwareType,DateUTC
2013-07-24 00:04:00,74.7,68.4,28.70,West,270,0.0,0.0,81,0.00,,---,0.00,VWS V14.00,2013-07-24 04:04:00,
2013-07-24 00:07:00,74.5,68.3,28.70,West,270,0.0,0.0,81,0.00,,---,0.00,VWS V14.00,2013-07-24 04:07:00,
2013-07-24 00:10:00,74.3,68.1,28.70,West,270,0.0,0.0,81,0.00,,---,0.00,VWS V14.00,2013-07-24 04:10:00,
2013-07-24 00:13:00,74.3,68.1,28.70,West,270,0.0,0.0,81,0.00,,---,0.00,VWS V14.00,2013-07-24 04:13:00,
2013-07-24 00:19:00,74.3,68.1,28.70,West,270,0.0,0.0,81,0.00,,---,0.00,VWS V14.00,2013-07-24 04:19:00,
2013-07-24 00:25:00,74.1,67.9,28.70,West,270,0.0,0.0,81,0.00,,---,0.00,VWS V14.00,2013-07-24 04:25:00,
2013-07-24 00:28:00,74.1,67.9,28.70,West,270,0.0,0.0,81,0.00,,---,0.00,VWS V14.00,2013-07-24 04:28:00,
2013-07-24 00:34:00,73.9,68.1,28.70,West,270,0.0,0.0,82,0.00,,---,0.00,VWS V14.00,2013-07-24 04:34:00,
2013-07-24 00:40:00,73.9,68.1,28.70,West,270,0.0,0.0,82,0.00,,---,0.00,VWS V14.00,2013-07-24 04:40:00,
2013-07-24 00:46:00,73.9,68.1,28.70,West,270,0.0,0.0,82,0.00,,---,0.00,VWS V14.00,2013-07-24 04:46:00,
2013-07-24 00:52:00,73.8,67.9,28.70,West,270,0.0,0.0,82,0.00,,---,0.00,VWS V14.00,2013-07-24 04:52:00,
2013-07-24 00:58:00,73.9,68.1,28.70,West,270,0.0,0.0,82,0.00,,---,0.00,VWS V14.00,2013-07-24 04:58:00,
2013-07-24 01:04:00,73.8,67.9,28.70,West,270,0.0,0.0,82,0.00,,---,0.00,VWS V14.00,2013-07-24 05:04:00,
2013-07-24 01:10:00,73.8,68.3,28.70,West,270,0.0,0.0,83,0.00,,---,0.00,VWS V14.00,2013-07-24 05:10:00,
2013-07-24 01:16:00,73.8,68.3,28.70,West,270,0.0,0.0,83,0.00,,---,0.00,VWS V14.00,2013-07-24 05:16:00,
2013-07-24 01:22:00,73.8,68.3,28.70,NNW,338,0.0,0.0,83,0.00,,---,0.00,VWS V14.00,2013-07-24 05:22:00,
2013-07-24 01:28:00,73.8,68.3,28.70,NW,315,0.0,0.0,83,0.00,,---,0.00,VWS V14.00,2013-07-24 05:28:00,
2013-07-24 01:34:00,73.6,68.1,28.70,NW,315,0.0,0.0,83,0.00,,---,0.00,VWS V14.00,2013-07-24 05:34:00,
2013-07-24 01:40:00,73.8,68.3,28.70,NW,315,0.0,0.0,83,0.00,,---,0.00,VWS V14.00,2013-07-24 05:40:00,
2013-07-24 01:46:00,73.8,68.3,28.70,NW,315,0.0,0.0,83,0.00,,---,0.00,VWS V14.00,2013-07-24 05:46:00,
2013-07-24 01:52:00,73.8,68.6,28.67,NW,315,0.0,0.0,84,0.00,,---,0.00,VWS V14.00,2013-07-24 05:52:00,
2013-07-24 01:58:00,73.6,68.4,28.67,North,0,0.0,0.0,84,0.00,,---,0.00,VWS V14.00,2013-07-24 05:58:00,
2013-07-24 02:04:00,73.6,68.4,28.67,NW,315,0.0,0.0,84,0.00,,---,0.00,VWS V14.00,2013-07-24 06:04:00,
2013-07-24 02:10:00,73.6,68.4,28.67,NW,315,0.0,0.0,84,0.00,,---,0.00,VWS V14.00,2013-07-24 06:10:00,
2013-07-24 02:16:00,73.4,68.3,28.67,NW,315,0.0,0.0,84,0.00,,---,0.00,VWS V14.00,2013-07-24 06:16:00,
2013-07-24 02:22:00,73.4,68.3,28.67,NW,315,0.0,0.0,84,0.00,,---,0.00,VWS V14.00,2013-07-24 06:22:00,
2013-07-24 02:28:00,73.4,68.3,28.67,NW,315,0.0,0.0,84,0.00,,---,0.00,VWS V14.00,2013-07-24 06:28:00,
2013-07-24 02:34:00,73.4,68.3,28.67,NW,315,0.0,0.0,84,0.00,,---,0.00,VWS V14.00,2013-07-24 06:34:00,
2013-07-24 02:40:00,73.4,68.3,28.67,North,0,0.0,0.0,84,0.00,,---,0.00,VWS V14.00,2013-07-24 06:40:00,
2013-07-24 02:46:00,73.2,68.4,28.67,North,0,0.0,0.0,85,0.00,,---,0.00,VWS V14.00,2013-07-24 06:46:00,
2013-07-24 02:52:00,73.2,68.1,28.67,North,0,0.0,0.0,84,0.00,,---,0.00,VWS V14.00,2013-07-24 06:52:00,
2013-07-24 02:58:00,73.2,68.1,28.67,North,0,0.0,0.0,84,0.00,,---,0.00,VWS V14.00,2013-07-24 06:58:00,
2013-07-24 03:04:00,73.2,68.1,28.64,North,0,0.0,0.0,84,0.00,,---,0.00,VWS V14.00,2013-07-24 07:04:00,
2013-07-24 03:10:00,73.0,67.9,28.64,North,0,0.0,0.0,84,0.00,,---,0.00,VWS V14.00,2013-07-24 07:10:00,
2013-07-24 03:16:00,73.0,68.3,28.64,NW,315,0.0,0.0,85,0.00,,---,0.00,VWS V14.00,2013-07-24 07:16:00,
2013-07-24 03:22:00,72.9,68.1,28.67,NW,315,0.0,0.0,85,0.00,,---,0.00,VWS V14.00,2013-07-24 07:22:00,
2013-07-24 03:28:00,72.5,67.7,28.67,West,270,0.0,0.0,85,0.00,,---,0.00,VWS V14.00,2013-07-24 07:28:00,
2013-07-24 03:35:00,72.3,67.6,28.67,West,270,0.0,0.0,85,0.00,,---,0.00,VWS V14.00,2013-07-24 07:35:00,
2013-07-24 03:41:00,72.3,67.6,28.67,West,270,0.0,0.0,85,0.00,,---,0.00,VWS V14.00,2013-07-24 07:41:00,
2013-07-24 03:47:00,72.3,67.6,28.67,West,270,0.0,0.0,85,0.00,,---,0.00,VWS V14.00,2013-07-24 07:47:00,
2013-07-24 03:53:00,72.3,67.6,28.64,WNW,292,0.0,0.0,85,0.00,,---,0.00,VWS V14.00,2013-07-24 07:53:00,
2013-07-24 03:59:00,72.3,67.9,28.64,WNW,292,0.0,0.0,86,0.00,,---,0.00,VWS V14.00,2013-07-24 07:59:00,
2013-07-24 04:05:00,72.1,67.7,28.64,West,270,0.0,0.0,86,0.00,,---,0.00,VWS V14.00,2013-07-24 08:05:00,
2013-07-24 04:11:00,72.1,67.7,28.64,WNW,292,1.3,1.3,86,0.00,,---,0.00,VWS V14.00,2013-07-24 08:11:00,
2013-07-24 04:17:00,72.1,67.7,28.64,WNW,292,0.0,1.3,86,0.00,,---,0.00,VWS V14.00,2013-07-24 08:17:00,
2013-07-24 04:23:00,72.0,67.6,28.67,WNW,292,0.0,1.3,86,0.00,,---,0.00,VWS V14.00,2013-07-24 08:23:00,
2013-07-24 04:29:00,72.0,67.6,28.67,WNW,292,0.0,1.3,86,0.00,,---,0.00,VWS V14.00,2013-07-24 08:29:00,
2013-07-24 04:35:00,71.8,67.4,28.64,WNW,292,0.0,1.3,86,0.00,,---,0.00,VWS V14.00,2013-07-24 08:35:00,
2013-07-24 04:41:00,71.6,67.5,28.64,WNW,292,0.0,1.3,87,0.00,,---,0.00,VWS V14.00,2013-07-24 08:41:00,
2013-07-24 04:47:00,71.6,67.2,28.64,WNW,292,0.0,1.3,86,0.00,,---,0.00,VWS V14.00,2013-07-24 08:47:00,
2013-07-24 04:53:00,71.6,67.5,28.64,West,270,0.0,1.3,87,0.00,,---,0.00,VWS V14.00,2013-07-24 08:53:00,
2013-07-24 04:59:00,71.6,67.2,28.64,West,270,0.0,1.3,86,0.00,,---,0.00,VWS V14.00,2013-07-24 08:59:00,
2013-07-24 05:05:00,71.6,67.2,28.64,West,270,0.0,0.0,86,0.00,,---,0.00,VWS V14.00,2013-07-24 09:05:00,
2013-07-24 05:14:00,71.4,67.0,28.64,West,270,0.0,0.0,86,0.00,,---,0.00,VWS V14.00,2013-07-24 09:14:00,
2013-07-24 05:20:00,71.4,67.0,28.64,West,270,0.0,0.0,86,0.00,,---,0.00,VWS V14.00,2013-07-24 09:20:00,
2013-07-24 05:26:00,71.4,67.3,28.64,West,270,0.0,0.0,87,0.00,,---,0.00,VWS V14.00,2013-07-24 09:26:00,
2013-07-24 05:32:00,71.4,67.0,28.64,West,270,0.0,0.0,86,0.00,,---,0.00,VWS V14.00,2013-07-24 09:32:00,
2013-07-24 05:38:00,71.4,67.0,28.64,NW,315,0.0,0.0,86,0.00,,---,0.00,VWS V14.00,2013-07-24 09:38:00,
2013-07-24 05:44:00,71.4,67.0,28.64,WNW,292,0.0,0.0,86,0.00,,---,0.00,VWS V14.00,2013-07-24 09:44:00,
2013-07-24 05:50:00,71.4,67.3,28.67,WNW,292,0.0,0.0,87,0.00,,---,0.00,VWS V14.00,2013-07-24 09:50:00,
2013-07-24 05:56:00,71.2,67.2,28.67,NW,315,0.0,0.0,87,0.00,,---,0.00,VWS V14.00,2013-07-24 09:56:00,
2013-07-24 06:02:00,71.2,67.2,28.67,NW,315,0.0,0.0,87,0.00,,---,0.00,VWS V14.00,2013-07-24 10:02:00,
2013-07-24 06:08:00,71.2,66.8,28.67,NW,315,0.0,0.0,86,0.00,,---,0.00,VWS V14.00,2013-07-24 10:08:00,
2013-07-24 06:14:00,71.1,67.0,28.67,NW,315,0.0,0.0,87,0.00,,---,0.00,VWS V14.00,2013-07-24 10:14:00,
2013-07-24 06:20:00,70.9,66.8,28.67,WNW,292,0.0,0.0,87,0.00,,---,0.00,VWS V14.00,2013-07-24 10:20:00,
2013-07-24 06:26:00,70.9,66.8,28.67,WNW,292,0.0,0.0,87,0.00,,---,0.00,VWS V14.00,2013-07-24 10:26:00,
2013-07-24 06:32:00,70.9,66.8,28.67,WNW,292,0.0,0.0,87,0.00,,---,0.00,VWS V14.00,2013-07-24 10:32:00,
2013-07-24 06:38:00,70.9,66.8,28.67,WNW,292,0.0,0.0,87,0.00,,---,0.00,VWS V14.00,2013-07-24 10:38:00,
2013-07-24 06:45:00,70.7,66.7,28.67,WNW,292,0.0,0.0,87,0.00,,---,0.00,VWS V14.00,2013-07-24 10:45:00,
2013-07-24 06:51:00,70.7,66.7,28.70,WNW,292,0.0,0.0,87,0.00,,---,0.00,VWS V14.00,2013-07-24 10:51:00,
2013-07-24 06:57:00,70.5,66.8,28.70,WNW,292,0.0,0.0,88,0.00,,---,0.00,VWS V14.00,2013-07-24 10:57:00,
2013-07-24 07:03:00,70.7,67.0,28.70,WNW,292,0.0,0.0,88,0.00,,---,0.00,VWS V14.00,2013-07-24 11:03:00,
2013-07-24 07:09:00,70.7,67.0,28.70,WNW,292,0.0,0.0,88,0.00,,---,0.00,VWS V14.00,2013-07-24 11:09:00,
2013-07-24 07:15:00,70.9,67.2,28.70,WNW,292,0.0,0.0,88,0.00,,---,0.00,VWS V14.00,2013-07-24 11:15:00,
2013-07-24 07:21:00,71.1,67.3,28.70,WNW,292,0.0,0.0,88,0.00,,---,0.00,VWS V14.00,2013-07-24 11:21:00,
2013-07-24 07:27:00,71.1,67.3,28.70,WNW,292,0.0,0.0,88,0.00,,---,0.00,VWS V14.00,2013-07-24 11:27:00,
2013-07-24 07:33:00,71.1,67.3,28.70,WNW,292,0.0,0.0,88,0.00,,---,0.00,VWS V14.00,2013-07-24 11:33:00,
2013-07-24 07:39:00,71.4,67.7,28.70,WNW,292,0.0,0.0,88,0.00,,---,0.00,VWS V14.00,2013-07-24 11:39:00,
2013-07-24 07:45:00,71.6,67.9,28.70,WNW,292,0.0,0.0,88,0.00,,---,0.00,VWS V14.00,2013-07-24 11:45:00,
2013-07-24 07:51:00,72.0,68.6,28.70,WNW,292,0.0,0.0,89,0.00,,---,0.00,VWS V14.00,2013-07-24 11:51:00,
2013-07-24 07:57:00,72.1,68.7,28.70,WNW,292,0.0,0.0,89,0.00,,---,0.00,VWS V14.00,2013-07-24 11:57:00,
2013-07-24 08:03:00,72.5,69.4,28.70,WNW,292,0.0,0.0,90,0.00,,---,0.00,VWS V14.00,2013-07-24 12:03:00,
2013-07-24 08:09:00,73.4,70.0,28.70,West,270,0.0,0.0,89,0.00,,---,0.00,VWS V14.00,2013-07-24 12:09:00,
2013-07-24 08:15:00,73.8,70.3,28.70,West,270,0.0,0.0,89,0.00,,---,0.00,VWS V14.00,2013-07-24 12:15:00,
2013-07-24 08:21:00,74.3,70.8,28.70,WNW,292,0.0,0.0,89,0.00,,---,0.00,VWS V14.00,2013-07-24 12:21:00,
2013-07-24 08:27:00,75.6,71.8,28.70,WNW,292,0.0,0.0,88,0.00,,---,0.00,VWS V14.00,2013-07-24 12:27:00,
2013-07-24 08:33:00,76.3,72.1,28.70,South,180,0.0,0.0,87,0.00,,---,0.00,VWS V14.00,2013-07-24 12:33:00,
2013-07-24 08:39:00,77.0,72.2,28.70,South,180,0.0,0.0,85,0.00,,---,0.00,VWS V14.00,2013-07-24 12:39:00,
2013-07-24 08:45:00,77.4,72.2,28.70,South,180,0.0,0.0,84,0.00,,---,0.00,VWS V14.00,2013-07-24 12:45:00,
2013-07-24 08:51:00,77.9,72.3,28.70,South,180,0.0,0.0,83,0.00,,---,0.00,VWS V14.00,2013-07-24 12:51:00,
2013-07-24 08:57:00,78.3,72.7,28.70,SSE,158,0.0,0.0,83,0.00,,---,0.00,VWS V14.00,2013-07-24 12:57:00,
2013-07-24 09:03:00,78.6,72.7,28.70,SSE,158,0.0,0.0,82,0.00,,---,0.00,VWS V14.00,2013-07-24 13:03:00,
2013-07-24 09:09:00,79.2,72.8,28.70,SSE,158,0.0,0.0,81,0.00,,---,0.00,VWS V14.00,2013-07-24 13:09:00,
2013-07-24 09:15:00,79.7,73.0,28.70,SSE,158,0.0,0.0,80,0.00,,---,0.00,VWS V14.00,2013-07-24 13:15:00,
2013-07-24 09:21:00,80.2,73.5,28.70,SSE,158,0.0,0.0,80,0.00,,---,0.00,VWS V14.00,2013-07-24 13:21:00,
2013-07-24 09:28:00,80.4,73.7,28.70,SSE,158,0.0,0.0,80,0.00,,---,0.00,VWS V14.00,2013-07-24 13:28:00,
2013-07-24 09:34:00,81.0,73.8,28.70,SSE,158,0.0,0.0,79,0.00,,---,0.00,VWS V14.00,2013-07-24 13:34:00,
2013-07-24 09:40:00,81.3,74.2,28.70,SSE,158,0.0,0.0,79,0.00,,---,0.00,VWS V14.00,2013-07-24 13:40:00,
2013-07-24 09:46:00,81.9,74.3,28.70,SSE,158,0.0,0.0,78,0.00,,---,0.00,VWS V14.00,2013-07-24 13:46:00,
2013-07-24 09:52:00,82.4,74.9,28.70,East,90,0.0,0.0,78,0.00,,---,0.00,VWS V14.00,2013-07-24 13:52:00,
2013-07-24 09:58:00,82.8,74.4,28.70,SE,135,0.0,0.0,76,0.00,,---,0.00,VWS V14.00,2013-07-24 13:58:00,
2013-07-24 10:04:00,83.3,74.6,28.70,ESE,112,0.0,0.0,75,0.00,,---,0.00,VWS V14.00,2013-07-24 14:04:00,
2013-07-24 10:10:00,83.7,74.9,28.70,SSE,158,0.0,1.6,75,0.00,,---,0.00,VWS V14.00,2013-07-24 14:10:00,
2013-07-24 10:16:00,83.8,74.7,28.70,East,90,0.0,1.6,74,0.00,,---,0.00,VWS V14.00,2013-07-24 14:16:00,
2013-07-24 10:22:00,84.2,75.0,28.70,West,270,0.0,2.0,74,0.00,,---,0.00,VWS V14.00,2013-07-24 14:22:00,
2013-07-24 10:28:00,84.4,74.4,28.70,NW,315,0.0,2.0,72,0.00,,---,0.00,VWS V14.00,2013-07-24 14:28:00,
2013-07-24 10:34:00,84.7,74.3,28.70,East,90,0.0,2.0,71,0.00,,---,0.00,VWS V14.00,2013-07-24 14:34:00,
2013-07-24 10:40:00,85.1,74.2,28.70,ESE,112,0.0,2.0,70,0.00,,---,0.00,VWS V14.00,2013-07-24 14:40:00,
2013-07-24 10:46:00,85.3,74.4,28.70,ESE,112,0.0,2.0,70,0.00,,---,0.00,VWS V14.00,2013-07-24 14:46:00,
2013-07-24 10:52:00,85.6,74.7,28.70,ESE,112,0.0,2.0,70,0.00,,---,0.00,VWS V14.00,2013-07-24 14:52:00,
2013-07-24 10:58:00,86.0,75.1,28.70,NE,45,0.0,2.0,70,0.00,,---,0.00,VWS V14.00,2013-07-24 14:58:00,
2013-07-24 11:04:00,86.2,74.8,28.70,ENE,68,0.0,0.0,69,0.00,,---,0.00,VWS V14.00,2013-07-24 15:04:00,
2013-07-24 11:10:00,86.5,75.6,28.70,NNW,338,0.0,0.0,70,0.00,,---,0.00,VWS V14.00,2013-07-24 15:10:00,
2013-07-24 11:16:00,86.7,75.3,28.70,SW,225,0.0,1.1,69,0.00,,---,0.00,VWS V14.00,2013-07-24 15:16:00,
2013-07-24 11:22:00,87.1,75.7,28.70,East,90,0.9,2.2,69,0.00,,---,0.00,VWS V14.00,2013-07-24 15:22:00,
2013-07-24 11:28:00,87.3,75.4,28.70,ESE,112,0.0,2.2,68,0.00,,---,0.00,VWS V14.00,2013-07-24 15:28:00,
2013-07-24 11:34:00,87.3,74.5,28.70,WSW,248,0.0,2.2,66,0.00,,---,0.00,VWS V14.00,2013-07-24 15:34:00,
2013-07-24 11:40:00,87.3,75.0,28.70,East,90,0.0,2.2,67,0.00,,---,0.00,VWS V14.00,2013-07-24 15:40:00,
2013-07-24 11:46:00,86.9,74.2,28.70,East,90,0.0,2.2,66,0.00,,---,0.00,VWS V14.00,2013-07-24 15:46:00,
2013-07-24 11:52:00,87.4,75.1,28.73,NE,45,0.0,2.2,67,0.00,,---,0.00,VWS V14.00,2013-07-24 15:52:00,
2013-07-24 11:58:00,87.6,75.8,28.73,NW,315,0.0,2.2,68,0.00,,---,0.00,VWS V14.00,2013-07-24 15:58:00,
2013-07-24 12:04:00,87.4,74.7,28.73,SSW,202,3.4,3.4,66,0.00,,---,0.00,VWS V14.00,2013-07-24 16:04:00,
2013-07-24 12:10:00,87.8,75.0,28.73,SW,225,1.1,3.4,66,0.00,,---,0.00,VWS V14.00,2013-07-24 16:10:00,
2013-07-24 12:16:00,88.2,74.9,28.73,SW,225,0.0,3.4,65,0.00,,---,0.00,VWS V14.00,2013-07-24 16:16:00,
2013-07-24 12:22:00,88.0,74.8,28.73,East,90,2.0,3.4,65,0.00,,---,0.00,VWS V14.00,2013-07-24 16:22:00,
2013-07-24 12:28:00,88.5,75.3,28.73,West,270,1.1,3.4,65,0.00,,---,0.00,VWS V14.00,2013-07-24 16:28:00,
2013-07-24 12:34:00,88.7,75.0,28.73,NW,315,1.3,3.4,64,0.00,,---,0.00,VWS V14.00,2013-07-24 16:34:00,
2013-07-24 12:40:00,88.7,75.4,28.73,WSW,248,0.0,3.4,65,0.00,,---,0.00,VWS V14.00,2013-07-24 16:40:00,
2013-07-24 12:47:00,88.9,75.1,28.73,South,180,0.0,3.4,64,0.00,,---,0.00,VWS V14.00,2013-07-24 16:47:00,
2013-07-24 12:53:00,89.2,75.5,28.73,ENE,68,0.0,3.4,64,0.00,,---,0.00,VWS V14.00,2013-07-24 16:53:00,
2013-07-24 12:59:00,89.6,75.8,28.73,SE,135,0.0,3.4,64,0.00,,---,0.00,VWS V14.00,2013-07-24 16:59:00,
2013-07-24 13:05:00,89.8,76.0,28.73,SE,135,0.0,0.0,64,0.00,,---,0.00,VWS V14.00,2013-07-24 17:05:00,
2013-07-24 13:11:00,89.8,75.5,28.73,SE,135,0.0,0.0,63,0.00,,---,0.00,VWS V14.00,2013-07-24 17:11:00,
2013-07-24 13:17:00,89.8,75.5,28.73,East,90,0.0,0.0,63,0.00,,---,0.00,VWS V14.00,2013-07-24 17:17:00,
2013-07-24 13:23:00,90.0,75.7,28.70,East,90,0.0,0.0,63,0.00,,---,0.00,VWS V14.00,2013-07-24 17:23:00,
2013-07-24 13:29:00,90.1,75.8,28.70,NE,45,2.0,2.0,63,0.00,,---,0.00,VWS V14.00,2013-07-24 17:29:00,
2013-07-24 13:35:00,90.0,76.2,28.73,NE,45,2.0,2.0,64,0.00,,---,0.00,VWS V14.00,2013-07-24 17:35:00,
2013-07-24 13:41:00,89.6,75.3,28.73,NW,315,2.2,2.2,63,0.00,,---,0.00,VWS V14.00,2013-07-24 17:41:00,
2013-07-24 13:47:00,89.4,75.6,28.73,SSW,202,2.9,2.9,64,0.00,,---,0.00,VWS V14.00,2013-07-24 17:47:00,
2013-07-24 13:53:00,88.9,75.1,28.73,SE,135,2.0,2.9,64,0.00,,---,0.00,VWS V14.00,2013-07-24 17:53:00,
2013-07-24 13:59:00,88.3,75.1,28.73,SE,135,2.0,2.9,65,0.00,,---,0.00,VWS V14.00,2013-07-24 17:59:00,
2013-07-24 14:05:00,87.8,75.0,28.70,SE,135,2.0,2.0,66,0.00,,---,0.00,VWS V14.00,2013-07-24 18:05:00,
2013-07-24 14:11:00,87.4,75.1,28.70,SE,135,2.0,2.0,67,0.00,,---,0.00,VWS V14.00,2013-07-24 18:11:00,
2013-07-24 14:17:00,87.1,74.8,28.70,SSW,202,0.0,2.0,67,0.00,,---,0.00,VWS V14.00,2013-07-24 18:17:00,
2013-07-24 14:23:00,86.5,74.7,28.70,SW,225,0.0,2.0,68,0.00,,---,0.00,VWS V14.00,2013-07-24 18:23:00,
2013-07-24 14:29:00,86.0,74.2,28.70,SE,135,0.0,2.0,68,0.00,,---,0.00,VWS V14.00,2013-07-24 18:29:00,
2013-07-24 14:35:00,85.5,73.3,28.70,SE,135,0.0,2.0,67,0.00,,---,0.00,VWS V14.00,2013-07-24 18:35:00,
2013-07-24 14:41:00,84.9,72.3,28.70,SE,135,0.0,2.0,66,0.00,,---,0.00,VWS V14.00,2013-07-24 18:41:00,
2013-07-24 14:47:00,84.0,71.9,28.70,SE,135,0.0,2.0,67,0.00,,---,0.00,VWS V14.00,2013-07-24 18:47:00,
2013-07-24 14:53:00,83.8,71.7,28.70,SE,135,0.0,2.0,67,0.00,,---,0.00,VWS V14.00,2013-07-24 18:53:00,
2013-07-24 14:59:00,82.9,70.4,28.70,SE,135,0.0,2.0,66,0.00,,---,0.00,VWS V14.00,2013-07-24 18:59:00,
2013-07-24 15:05:00,83.1,70.6,28.70,SE,135,0.0,0.0,66,0.00,,---,0.00,VWS V14.00,2013-07-24 19:05:00,
2013-07-24 15:11:00,82.9,70.4,28.70,SE,135,0.0,0.0,66,0.00,,---,0.00,VWS V14.00,2013-07-24 19:11:00,
2013-07-24 15:17:00,82.6,70.5,28.70,SE,135,0.0,0.0,67,0.00,,---,0.00,VWS V14.00,2013-07-24 19:17:00,
2013-07-24 15:23:00,82.2,70.2,28.70,ENE,68,0.0,0.0,67,0.00,,---,0.00,VWS V14.00,2013-07-24 19:23:00,
2013-07-24 15:29:00,82.2,70.6,28.70,ENE,68,0.0,0.0,68,0.00,,---,0.00,VWS V14.00,2013-07-24 19:29:00,
2013-07-24 15:35:00,82.0,70.4,28.70,NE,45,0.0,0.0,68,0.00,,---,0.00,VWS V14.00,2013-07-24 19:35:00,
2013-07-24 15:45:00,82.8,71.1,28.70,WNW,292,2.0,2.0,68,0.00,,---,0.00,VWS V14.00,2013-07-24 19:45:00,
2013-07-24 15:51:00,82.9,71.3,28.70,NW,315,0.0,2.0,68,0.00,,---,0.00,VWS V14.00,2013-07-24 19:51:00,
2013-07-24 15:57:00,82.9,71.7,28.70,North,0,0.0,2.0,69,0.00,,---,0.00,VWS V14.00,2013-07-24 19:57:00,
2013-07-24 16:03:00,83.1,71.9,28.70,WNW,292,0.0,0.0,69,0.00,,---,0.00,VWS V14.00,2013-07-24 20:03:00,
2013-07-24 16:09:00,83.3,72.1,28.70,North,0,0.0,1.6,69,0.00,,---,0.00,VWS V14.00,2013-07-24 20:09:00,
2013-07-24 16:15:00,83.1,71.9,28.70,NW,315,0.0,1.6,69,0.00,,---,0.00,VWS V14.00,2013-07-24 20:15:00,
2013-07-24 16:21:00,82.8,72.0,28.70,NNW,338,0.0,1.6,70,0.00,,---,0.00,VWS V14.00,2013-07-24 20:21:00,
2013-07-24 16:27:00,82.9,72.2,28.70,West,270,0.0,1.6,70,0.00,,---,0.00,VWS V14.00,2013-07-24 20:27:00,
2013-07-24 16:33:00,83.1,72.3,28.70,WNW,292,0.0,1.6,70,0.00,,---,0.00,VWS V14.00,2013-07-24 20:33:00,
2013-07-24 16:39:00,83.1,72.3,28.70,NE,45,2.2,2.7,70,0.00,,---,0.00,VWS V14.00,2013-07-24 20:39:00,
2013-07-24 16:45:00,83.3,72.5,28.70,NW,315,0.0,3.6,70,0.00,,---,0.00,VWS V14.00,2013-07-24 20:45:00,
2013-07-24 16:51:00,82.9,71.7,28.70,SW,225,0.0,3.6,69,0.00,,---,0.00,VWS V14.00,2013-07-24 20:51:00,
2013-07-24 16:57:00,82.4,71.2,28.70,NW,315,0.0,3.6,69,0.00,,---,0.00,VWS V14.00,2013-07-24 20:57:00,
2013-07-24 17:03:00,82.6,71.8,28.67,WNW,292,2.9,2.9,70,0.00,,---,0.00,VWS V14.00,2013-07-24 21:03:00,
2013-07-24 17:09:00,82.2,71.5,28.67,WSW,248,1.6,2.9,70,0.00,,---,0.00,VWS V14.00,2013-07-24 21:09:00,
2013-07-24 17:15:00,82.0,71.3,28.67,WSW,248,1.6,2.9,70,0.00,,---,0.00,VWS V14.00,2013-07-24 21:15:00,
2013-07-24 17:21:00,82.2,71.5,28.67,WSW,248,1.6,2.9,70,0.00,,---,0.00,VWS V14.00,2013-07-24 21:21:00,
2013-07-24 17:27:00,82.2,71.9,28.67,WSW,248,1.6,2.9,71,0.00,,---,0.00,VWS V14.00,2013-07-24 21:27:00,
2013-07-24 17:33:00,82.0,72.1,28.67,WSW,248,1.6,2.9,72,0.00,,---,0.00,VWS V14.00,2013-07-24 21:33:00,
2013-07-24 17:39:00,82.4,72.1,28.67,WSW,248,1.6,2.9,71,0.00,,---,0.00,VWS V14.00,2013-07-24 21:39:00,
2013-07-24 17:45:00,82.6,72.2,28.67,WSW,248,1.6,2.9,71,0.00,,---,0.00,VWS V14.00,2013-07-24 21:45:00,
2013-07-24 17:51:00,82.6,72.7,28.67,NE,45,0.0,2.9,72,0.00,,---,0.00,VWS V14.00,2013-07-24 21:51:00,
2013-07-24 17:57:00,82.6,72.2,28.67,NNW,338,0.0,2.9,71,0.00,,---,0.00,VWS V14.00,2013-07-24 21:57:00,
2013-07-24 18:04:00,82.4,72.5,28.67,NNW,338,0.0,0.0,72,0.00,,---,0.00,VWS V14.00,2013-07-24 22:04:00,
2013-07-24 18:10:00,82.4,72.9,28.67,NE,45,0.0,0.0,73,0.00,,---,0.00,VWS V14.00,2013-07-24 22:10:00,
2013-07-24 18:16:00,81.9,72.4,28.67,North,0,0.0,0.0,73,0.00,,---,0.00,VWS V14.00,2013-07-24 22:16:00,
2013-07-24 18:22:00,81.7,71.8,28.67,North,0,0.0,0.0,72,0.00,,---,0.00,VWS V14.00,2013-07-24 22:22:00,
2013-07-24 18:28:00,81.7,71.4,28.67,North,0,0.0,0.0,71,0.00,,---,0.00,VWS V14.00,2013-07-24 22:28:00,
2013-07-24 18:34:00,81.7,72.2,28.67,North,0,0.0,0.0,73,0.00,,---,0.00,VWS V14.00,2013-07-24 22:34:00,
2013-07-24 18:40:00,81.5,72.0,28.67,WNW,292,1.1,1.3,73,0.00,,---,0.00,VWS V14.00,2013-07-24 22:40:00,
2013-07-24 18:46:00,81.0,71.9,28.67,NW,315,0.0,1.3,74,0.00,,---,0.00,VWS V14.00,2013-07-24 22:46:00,
2013-07-24 18:52:00,81.0,71.9,28.67,NW,315,0.0,1.3,74,0.00,,---,0.00,VWS V14.00,2013-07-24 22:52:00,
2013-07-24 18:58:00,81.0,72.3,28.67,West,270,0.0,1.3,75,0.00,,---,0.00,VWS V14.00,2013-07-24 22:58:00,
2013-07-24 19:04:00,80.6,71.9,28.67,West,270,0.0,0.0,75,0.00,,---,0.00,VWS V14.00,2013-07-24 23:04:00,
2013-07-24 19:10:00,80.6,72.3,28.67,SW,225,0.0,0.0,76,0.00,,---,0.00,VWS V14.00,2013-07-24 23:10:00,
2013-07-24 19:16:00,80.8,72.5,28.67,WNW,292,0.0,0.0,76,0.00,,---,0.00,VWS V14.00,2013-07-24 23:16:00,
2013-07-24 19:22:00,80.8,72.5,28.67,WNW,292,0.0,0.0,76,0.00,,---,0.00,VWS V14.00,2013-07-24 23:22:00,
2013-07-24 19:28:00,80.6,72.3,28.67,West,270,0.0,0.0,76,0.00,,---,0.00,VWS V14.00,2013-07-24 23:28:00,
2013-07-24 19:34:00,80.6,72.7,28.67,West,270,0.0,0.0,77,0.00,,---,0.00,VWS V14.00,2013-07-24 23:34:00,
2013-07-24 19:40:00,80.6,72.7,28.67,WNW,292,0.0,0.0,77,0.00,,---,0.00,VWS V14.00,2013-07-24 23:40:00,
2013-07-24 19:46:00,80.6,72.7,28.67,West,270,0.0,0.0,77,0.00,,---,0.00,VWS V14.00,2013-07-24 23:46:00,
2013-07-24 19:52:00,80.4,72.6,28.67,West,270,0.0,0.0,77,0.00,,---,0.00,VWS V14.00,2013-07-24 23:52:00,
2013-07-24 19:58:00,80.4,72.6,28.67,West,270,0.0,2.7,77,0.00,,---,0.00,VWS V14.00,2013-07-24 23:58:00,
2013-07-24 20:04:00,80.4,72.6,28.70,West,270,0.0,0.0,77,0.00,,---,0.00,VWS V14.00,2013-07-25 00:04:00,
2013-07-24 20:10:00,80.4,72.6,28.70,West,270,0.0,0.0,77,0.00,,---,0.00,VWS V14.00,2013-07-25 00:10:00,
2013-07-24 20:16:00,80.2,72.0,28.70,West,270,0.0,0.0,76,0.00,,---,0.00,VWS V14.00,2013-07-25 00:16:00,
2013-07-24 20:22:00,80.1,71.8,28.67,West,270,0.0,0.0,76,0.00,,---,0.00,VWS V14.00,2013-07-25 00:22:00,
2013-07-24 20:28:00,79.5,71.3,28.67,West,270,0.0,0.0,76,0.00,,---,0.00,VWS V14.00,2013-07-25 00:28:00,
2013-07-24 20:35:00,79.5,71.3,28.70,West,270,0.0,0.0,76,0.00,,---,0.00,VWS V14.00,2013-07-25 00:35:00,
2013-07-24 20:41:00,79.3,71.1,28.70,West,270,0.0,0.0,76,0.00,,---,0.00,VWS V14.00,2013-07-25 00:41:00,
2013-07-24 20:47:00,79.2,70.9,28.70,West,270,0.0,0.0,76,0.00,,---,0.00,VWS V14.00,2013-07-25 00:47:00,
2013-07-24 20:53:00,79.0,71.2,28.70,West,270,0.0,0.0,77,0.00,,---,0.00,VWS V14.00,2013-07-25 00:53:00,
2013-07-24 20:59:00,78.6,70.8,28.70,West,270,0.0,0.0,77,0.00,,---,0.00,VWS V14.00,2013-07-25 00:59:00,
2013-07-24 21:05:00,78.1,70.7,28.70,West,270,0.0,0.0,78,0.00,,---,0.00,VWS V14.00,2013-07-25 01:05:00,
2013-07-24 21:11:00,77.7,70.7,28.70,West,270,0.0,0.0,79,0.00,,---,0.00,VWS V14.00,2013-07-25 01:11:00,
2013-07-24 21:17:00,77.5,70.5,28.70,WNW,292,0.0,0.0,79,0.00,,---,0.00,VWS V14.00,2013-07-25 01:17:00,
2013-07-24 21:23:00,77.4,70.3,28.70,WNW,292,0.0,0.0,79,0.00,,---,0.00,VWS V14.00,2013-07-25 01:23:00,
2013-07-24 21:29:00,77.2,70.2,28.70,WNW,292,0.0,0.0,79,0.00,,---,0.00,VWS V14.00,2013-07-25 01:29:00,
2013-07-24 21:35:00,77.0,70.0,28.70,WNW,292,0.0,0.0,79,0.00,,---,0.00,VWS V14.00,2013-07-25 01:35:00,
2013-07-24 21:41:00,76.8,70.2,28.70,WNW,292,0.0,0.0,80,0.00,,---,0.00,VWS V14.00,2013-07-25 01:41:00,
2013-07-24 21:47:00,76.6,70.0,28.70,WNW,292,0.0,0.0,80,0.00,,---,0.00,VWS V14.00,2013-07-25 01:47:00,
2013-07-24 21:53:00,76.5,69.8,28.70,WNW,292,0.0,0.0,80,0.00,,---,0.00,VWS V14.00,2013-07-25 01:53:00,
2013-07-24 21:59:00,76.3,69.7,28.70,WNW,292,0.0,0.0,80,0.00,,---,0.00,VWS V14.00,2013-07-25 01:59:00,
2013-07-24 22:05:00,76.1,69.5,28.70,WNW,292,0.0,0.0,80,0.00,,---,0.00,VWS V14.00,2013-07-25 02:05:00,
2013-07-24 22:11:00,75.9,69.3,28.70,WNW,292,0.0,0.0,80,0.00,,---,0.00,VWS V14.00,2013-07-25 02:11:00,
2013-07-24 22:20:00,75.6,69.0,28.70,WNW,292,0.0,0.0,80,0.00,,---,0.00,VWS V14.00,2013-07-25 02:20:00,
2013-07-24 22:26:00,75.6,69.0,28.70,WNW,292,0.0,0.0,80,0.00,,---,0.00,VWS V14.00,2013-07-25 02:26:00,
2013-07-24 22:32:00,75.4,68.8,28.70,WNW,292,0.0,0.0,80,0.00,,---,0.00,VWS V14.00,2013-07-25 02:32:00,
2013-07-24 22:38:00,75.4,68.8,28.70,WNW,292,0.0,0.0,80,0.00,,---,0.00,VWS V14.00,2013-07-25 02:38:00,
2013-07-24 22:44:00,75.4,68.8,28.70,WNW,292,0.0,0.0,80,0.00,,---,0.00,VWS V14.00,2013-07-25 02:44:00,
2013-07-24 22:50:00,75.0,68.4,28.73,NW,315,0.0,0.0,80,0.00,,---,0.00,VWS V14.00,2013-07-25 02:50:00,
2013-07-24 22:56:00,74.8,68.3,28.73,NW,315,0.0,0.0,80,0.00,,---,0.00,VWS V14.00,2013-07-25 02:56:00,
2013-07-24 23:02:00,74.7,68.4,28.73,NW,315,0.0,0.0,81,0.00,,---,0.00,VWS V14.00,2013-07-25 03:02:00,
2013-07-24 23:08:00,74.5,67.9,28.73,WNW,292,0.0,0.0,80,0.00,,---,0.00,VWS V14.00,2013-07-25 03:08:00,
2013-07-24 23:15:00,74.5,68.3,28.73,WNW,292,0.0,0.0,81,0.00,,---,0.00,VWS V14.00,2013-07-25 03:15:00,
2013-07-24 23:21:00,74.3,68.1,28.73,WNW,292,0.0,0.0,81,0.00,,---,0.00,VWS V14.00,2013-07-25 03:21:00,
2013-07-24 23:27:00,73.9,67.8,28.73,WNW,292,0.0,0.0,81,0.00,,---,0.00,VWS V14.00,2013-07-25 03:27:00,
2013-07-24 23:33:00,73.9,67.8,28.73,WNW,292,0.0,0.0,81,0.00,,---,0.00,VWS V14.00,2013-07-25 03:33:00,
2013-07-24 23:39:00,73.8,67.9,28.73,WNW,292,0.0,0.0,82,0.00,,---,0.00,VWS V14.00,2013-07-25 03:39:00,
2013-07-24 23:45:00,73.8,67.9,28.73,WNW,292,0.0,0.0,82,0.00,,---,0.00,VWS V14.00,2013-07-25 03:45:00,
2013-07-24 23:54:00,73.6,67.8,28.73,WNW,292,0.0,0.0,82,0.00,,---,0.00,VWS V14.00,2013-07-25 03:54:00,